Regional Weather Roundup
Issued by NWS

Home | Current Version | Previous Version | Text Only | Print | Product List | Glossary On
Versions: 1 2 3 4 5 6 7 8 9 10 11 12 13 14 15 16 17 18 19 20 21 22 23 24 25 26 27 28 29 30 31 32 33 34 35 36 37 38 39 40 41 42 43 44 45 46 47 48 49 50
000
ASUS45 KABQ 270810
RWRNM
NEW MEXICO REGIONAL WEATHER ROUNDUP
NATIONAL WEATHER SERVICE ALBUQUERQUE NM
200 AM MDT SAT MAY 27 2017

NOTE: "FAIR" MEANS FEW OR NO CLOUDS BELOW 12,000 FEET AGL WITH NO
       SIGNIFICANT WEATHER OR OBSTRUCTIONS TO VISION.

      THIS PRODUCT IS RELEASED AS TWO VERSIONS.  ONE VERSION NEAR
      THE TOP OF THE HOUR CONTAINING PRELIMINARY DATA FROM ALBUQUERQUE
      AND OTHER STATIONS.  A FINAL VERSION WITH ADDITIONAL DATA IS
      ISSUED ABOUT 10 MINUTES AFTER THE HOUR.

NMZ501-503-504-510>518-270900-
NORTHWEST PLATEAU/NORTHCENTRAL MOUNTAINS

CITY           SKY/WX    TMP DP  RH WIND       PRES   REMARKS
FARMINGTON     FAIR      58  19  22 W12       30.00R
LOS ALAMOS     FAIR      58   8  13 E5        30.12R
SANTA FE       FAIR      53  11  18 NW3       30.08R
TAOS           FAIR      52   9  17 W3        30.11S
ANGEL FIRE     FAIR      50  13  22 W9        30.15S

$$
NMZ402-403-502-505>509-270900-
WESTCENTRAL MOUNTAINS/SOUTHWEST MOUNTAINS

CITY           SKY/WX    TMP DP  RH WIND       PRES   REMARKS
GALLUP         FAIR      50  13  22 SW5       30.12S
GRANTS         FAIR      57  10  15 NW3       30.13F
SILVER CITY    FAIR      58  19  22 W9        30.10S

$$
NMZ407-409-411-412-270900-
SOUTHERN DESERTS

CITY           SKY/WX    TMP DP  RH WIND       PRES   REMARKS
DEMING         FAIR      69  23  17 W10       30.04R
LAS CRUCES     FAIR      67  23  18 W7        30.04S
HOLLOMAN AFB   FAIR      74  19  12 S10       30.02S
ALAMOGORDO     FAIR      68  23  18 S6        30.01S
T OR C         FAIR      70  14  11 NW5       30.01S

$$
NMZ519>523-270900-
CENTRAL VALLEYS/CENTRAL HIGHLANDS

CITY           SKY/WX    TMP DP  RH WIND       PRES   REMARKS
ALBUQUERQUE    FAIR      60   9  13 SE6       30.05R
DOUBLE EAGLE   FAIR      50  12  21 W7        30.06S
MORIARTY ARPT  FAIR      60  11  14 W6        30.09R
CLINES CORNERS NOT AVBL
BELEN          FAIR      54  11  17 NW6       30.04S
SOCORRO        FAIR      58  14  17 CALM      30.02R

$$
NMZ524>526-539-540-270900-
SOUTHCENTRAL MOUNTAINS

CITY           SKY/WX    TMP DP  RH WIND       PRES   REMARKS
RUIDOSO        FAIR      63  14  15 W7        30.13F

$$
NMZ527>531-270900-
NORTHEAST HIGHLANDS/NORTHEAST PLAINS

CITY           SKY/WX    TMP DP  RH WIND       PRES   REMARKS
LAS VEGAS      FAIR      51  11  20 S8        30.05R
RATON          FAIR      58  14  17 W8        29.98R
CLAYTON        FAIR      59  28  30 W13       29.87S

$$
NMZ532>537-270900-
EASTCENTRAL PLAINS

CITY           SKY/WX    TMP DP  RH WIND       PRES   REMARKS
SANTA ROSA     FAIR      63  16  16 W9        29.95R
TUCUMCARI      FAIR      69  22  16 W16       29.83S
CANNON AFB     FAIR      62  27  26 W14       29.92R
CLOVIS AIRPORT FAIR      64  28  25 W13       29.90S

$$
NMZ028-029-538-270900-
SOUTHEAST PLAINS

CITY           SKY/WX    TMP DP  RH WIND       PRES   REMARKS
ROSWELL        FAIR      72  26  18 W13       29.89S
ARTESIA        FAIR      70  27  19 SW13      29.91S
CARLSBAD       FAIR      78  28  16 W12       29.89S
HOBBS          FAIR      70  27  19 W9        29.92F


$$



USA.gov is the U.S. government's official web portal to all federal, state and local government web resources and services.